{"data":{"norad_id":66987,"epoch":"2026-05-25T03:54:12.318912Z","epoch_age_seconds":61142,"freshness":"FRESH","line1":"1 66987U 25288AE  26145.16264258  .00024455  00000+0  89498-3 0  9993","line2":"2 66987  43.0000 311.5078 0001371 273.1548  86.9146 15.27590227 26981","mean_motion":15.27590227,"eccentricity":0.0001371,"inclination_deg":43,"raan_deg":311.5078,"arg_perigee_deg":273.1548,"mean_anomaly_deg":86.9146,"bstar":0.00089498,"rev_number":2698,"period_min":94.266117611133,"perigee_km":482.07780847802,"apogee_km":483.95913730869,"semimajor_km":6861.1554728934,"source":"CELESTRAK","updated_at":"2026-05-25T13:38:21.428916Z"}}